Fort Meade, MD

6:35 AM EDT on June 20, 2018 (GMT -0400)
Tipton

Weather History for KFME - June, 2018

Change the Weather History Date:

Thursday, June 14, 2018

  Actual Average (KBWI) Record (KBWI)
Temperature  
Mean Temperature 72 °F -  
Max Temperature 80 °F 82 °F 98 °F (1994)
Min Temperature 62 °F 60 °F 46 °F (1978)
Cooling Degree Days 7    
Growing Degree Days 22 (Base 50)    
Moisture  
Dew Point 57 °F    
Average Humidity 60    
Maximum Humidity 100    
Minimum Humidity 34    
Precipitation  
Precipitation 0.00 in - - ()
Sea Level Pressure  
Sea Level Pressure 29.93 in    
Wind  
Wind Speed 6 mph (WNW)    
Max Wind Speed 17 mph    
Max Gust Speed 25 mph    
Visibility 10 miles    
Events      
Averages and records for this station are not official NWS values.
T = Trace of Precipitation, MM = Missing Value Source: NWS Daily Summary

Daily Weather History Graph

Daily Weather History Graph

Search for Another Location

Airport or City:

Astronomy

Jun. 14, 2018 Rise Set
Actual Time 5:40 AM EDT 8:34 PM EDT
Civil Twilight 5:08 AM EDT 9:06 PM EDT
Nautical Twilight 4:27 AM EDT 9:47 PM EDT
Astronomical Twilight 3:41 AM EDT 10:33 PM EDT
Moon 6:35 AM EDT (6/14) 9:33 PM EDT (6/14)
Length of Visible Light 15h 58m
Length of Day
14h 53m
New Moon, 1% of the Moon is Illuminated
Jun 14
New Moon
Jun 20
First Quarter
Jun 28
Full
Jul 6
Last Quarter
Jul 12
New

Hourly Weather History & Observations

Time (EDT) Temp. Heat Index Dew Point Humidity Pressure Visibility Wind Dir Wind Speed Gust Speed Precip Events Conditions
12:15 AM 69.8 °F - 69.8 °F 100% 29.85 in 7.0 mi SSW 3.5 mph - N/A   Clear
12:36 AM 69.8 °F - 68.0 °F 94% 29.85 in 7.0 mi SW 5.8 mph - N/A   Clear
12:57 AM 69.8 °F - 68.0 °F 94% 29.85 in 5.0 mi SW 5.8 mph - N/A   Clear
1:15 AM 69.8 °F - 68.0 °F 94% 29.86 in 5.0 mi WSW 5.8 mph - N/A   Scattered Clouds
1:36 AM 69.8 °F - 69.8 °F 100% 29.87 in 7.0 mi West 4.6 mph - N/A   Mostly Cloudy
1:57 AM 71.6 °F - 69.8 °F 94% 29.88 in 10.0 mi Calm Calm - N/A   Mostly Cloudy
2:15 AM 71.6 °F - 69.8 °F 94% 29.88 in 7.0 mi Calm Calm - N/A   Mostly Cloudy
2:36 AM 71.6 °F - 69.8 °F 94% 29.88 in 7.0 mi West 4.6 mph - N/A   Mostly Cloudy
2:57 AM 71.6 °F - 69.8 °F 94% 29.88 in 10.0 mi WNW 3.5 mph - N/A   Overcast
3:15 AM 71.6 °F - 69.8 °F 94% 29.88 in 10.0 mi NW 3.5 mph - N/A   Overcast
3:36 AM 71.6 °F - 69.8 °F 94% 29.89 in 10.0 mi West 4.6 mph - N/A   Mostly Cloudy
3:57 AM 71.6 °F - 68.0 °F 88% 29.89 in 10.0 mi NW 4.6 mph - N/A   Mostly Cloudy
4:15 AM 71.6 °F - 68.0 °F 88% 29.89 in 10.0 mi WNW 4.6 mph - N/A   Overcast
4:36 AM 71.6 °F - 68.0 °F 88% 29.89 in 10.0 mi NW 4.6 mph - N/A   Overcast
4:57 AM 71.6 °F - 64.4 °F 78% 29.90 in 10.0 mi NW 5.8 mph - N/A   Mostly Cloudy
5:15 AM 69.8 °F - 64.4 °F 83% 29.90 in 10.0 mi NW 4.6 mph - N/A   Scattered Clouds
5:36 AM 71.6 °F - 64.4 °F 78% 29.91 in 10.0 mi NW 5.8 mph - N/A   Mostly Cloudy
5:57 AM 71.6 °F - 62.6 °F 73% 29.92 in 10.0 mi NW 6.9 mph - N/A   Mostly Cloudy
6:15 AM 71.6 °F - 60.8 °F 69% 29.93 in 10.0 mi NW 5.8 mph - N/A   Scattered Clouds
6:36 AM 69.8 °F - 59.0 °F 68% 29.94 in 10.0 mi NW 5.8 mph - N/A   Clear
6:57 AM 69.8 °F - 59.0 °F 68% 29.95 in 10.0 mi NW 4.6 mph - N/A   Clear
7:15 AM 69.8 °F - 60.8 °F 73% 29.96 in 10.0 mi NW 3.5 mph - N/A   Clear
7:36 AM 69.8 °F - 59.0 °F 68% 29.96 in 10.0 mi NW 4.6 mph - N/A   Clear
7:57 AM 71.6 °F - 59.0 °F 64% 29.96 in 10.0 mi NW 6.9 mph - N/A   Clear
8:15 AM 71.6 °F - 55.4 °F 57% 29.96 in 10.0 mi NW 4.6 mph - N/A   Clear
8:36 AM 71.6 °F - 55.4 °F 57% 29.97 in 10.0 mi NW 4.6 mph - N/A   Clear
8:57 AM 71.6 °F - 53.6 °F 53% 29.98 in 10.0 mi WNW 5.8 mph - N/A   Clear
9:15 AM 71.6 °F - 53.6 °F 53% 29.98 in 10.0 mi WNW 5.8 mph - N/A   Clear
9:36 AM 71.6 °F - 55.4 °F 57% 29.98 in 10.0 mi West 3.5 mph - N/A   Clear
9:57 AM 71.6 °F - 55.4 °F 57% 29.98 in 10.0 mi NW 3.5 mph - N/A   Clear
10:15 AM 73.4 °F - 55.4 °F 53% 29.98 in 10.0 mi WNW 6.9 mph - N/A   Clear
10:36 AM 77.0 °F - 51.8 °F 41% 29.98 in 10.0 mi WNW 9.2 mph - N/A   Clear
10:57 AM 77.0 °F - 50.0 °F 39% 29.98 in 10.0 mi WNW 9.2 mph 18.4 mph N/A   Clear
11:15 AM 77.0 °F - 50.0 °F 39% 29.98 in 10.0 mi NW 9.2 mph 17.3 mph N/A   Clear
11:36 AM 78.8 °F - 51.8 °F 39% 29.97 in 10.0 mi WNW 9.2 mph 16.1 mph N/A   Clear
11:57 AM 78.8 °F - 51.8 °F 39% 29.96 in 10.0 mi WNW 11.5 mph 17.3 mph N/A   Clear
12:15 PM 78.8 °F - 51.8 °F 39% 29.96 in 10.0 mi WNW 6.9 mph - N/A   Clear
12:36 PM 78.8 °F - 50.0 °F 36% 29.96 in 10.0 mi NW 10.4 mph 19.6 mph N/A   Clear
12:57 PM 80.6 °F - 51.8 °F 37% 29.95 in 10.0 mi WNW 13.8 mph 18.4 mph N/A   Clear
1:15 PM 78.8 °F - 51.8 °F 39% 29.95 in 10.0 mi WNW 9.2 mph 18.4 mph N/A   Clear
1:36 PM 80.6 °F 80.3 °F 53.6 °F 39% 29.94 in 10.0 mi WNW 11.5 mph 20.7 mph N/A   Clear
1:57 PM 80.6 °F - 51.8 °F 37% 29.94 in 10.0 mi WNW 11.5 mph 20.7 mph N/A   Clear
2:15 PM 80.6 °F 80.3 °F 53.6 °F 39% 29.93 in 10.0 mi West 11.5 mph 24.2 mph N/A   Clear
2:36 PM 80.6 °F - 51.8 °F 37% 29.93 in 10.0 mi West 11.5 mph 23.0 mph N/A   Clear
2:57 PM 80.6 °F - 51.8 °F 37% 29.92 in 10.0 mi WNW 11.5 mph 25.3 mph N/A   Clear
3:15 PM 80.6 °F - 51.8 °F 37% 29.92 in 10.0 mi West 8.1 mph - N/A   Clear
3:36 PM 80.6 °F 80.3 °F 53.6 °F 39% 29.92 in 10.0 mi WNW 10.4 mph 18.4 mph N/A   Clear
3:57 PM 80.6 °F 80.3 °F 53.6 °F 39% 29.91 in 10.0 mi West 16.1 mph 24.2 mph N/A   Clear
4:15 PM 80.6 °F - 51.8 °F 37% 29.91 in 10.0 mi West 11.5 mph 23.0 mph N/A   Clear
4:36 PM 80.6 °F - 51.8 °F 37% 29.91 in 10.0 mi WNW 13.8 mph 21.9 mph N/A   Clear
4:57 PM 80.6 °F - 51.8 °F 37% 29.90 in 10.0 mi West 13.8 mph 23.0 mph N/A   Clear
5:15 PM 80.6 °F - 50.0 °F 34% 29.90 in 10.0 mi West 9.2 mph 23.0 mph N/A   Clear
5:36 PM 80.6 °F - 50.0 °F 34% 29.90 in 10.0 mi West 13.8 mph 21.9 mph N/A   Clear
5:57 PM 80.6 °F - 50.0 °F 34% 29.90 in 10.0 mi WNW 17.3 mph 24.2 mph N/A   Clear
6:15 PM 80.6 °F - 50.0 °F 34% 29.90 in 10.0 mi WNW 13.8 mph 19.6 mph N/A   Clear
6:36 PM 78.8 °F - 50.0 °F 36% 29.90 in 10.0 mi WNW 10.4 mph 19.6 mph N/A   Clear
6:57 PM 78.8 °F - 51.8 °F 39% 29.90 in 10.0 mi WNW 5.8 mph 17.3 mph N/A   Clear
7:15 PM 77.0 °F - 51.8 °F 41% 29.91 in 10.0 mi WNW 9.2 mph - N/A   Clear
7:36 PM 77.0 °F - 51.8 °F 41% 29.91 in 10.0 mi West 8.1 mph - N/A   Clear
7:57 PM 73.4 °F - 53.6 °F 50% 29.92 in 10.0 mi West 6.9 mph - N/A   Clear
8:15 PM 73.4 °F - 55.4 °F 53% 29.93 in 10.0 mi West 5.8 mph - N/A   Clear
8:36 PM 69.8 °F - 59.0 °F 68% 29.93 in 10.0 mi West 6.9 mph - N/A   Clear
8:57 PM 69.8 °F - 55.4 °F 60% 29.93 in 10.0 mi West 6.9 mph - N/A   Clear
9:15 PM 69.8 °F - 55.4 °F 60% 29.94 in 10.0 mi West 3.5 mph - N/A   Clear
9:36 PM 68.0 °F - 55.4 °F 64% 29.95 in 10.0 mi West 4.6 mph - N/A   Clear
9:57 PM 68.0 °F - 55.4 °F 64% 29.95 in 10.0 mi West 4.6 mph - N/A   Clear
10:15 PM 66.2 °F - 55.4 °F 68% 29.95 in 10.0 mi West 3.5 mph - N/A   Clear
10:36 PM 64.4 °F - 55.4 °F 73% 29.95 in 10.0 mi West 3.5 mph - N/A   Clear
10:57 PM 64.4 °F - 55.4 °F 73% 29.96 in 10.0 mi WNW 5.8 mph - N/A   Clear
11:15 PM 64.4 °F - 53.6 °F 68% 29.96 in 10.0 mi West 4.6 mph - N/A   Clear
11:36 PM 64.4 °F - 53.6 °F 68% 29.97 in 10.0 mi Calm Calm - N/A   Clear
11:57 PM 62.6 °F - 55.4 °F 77% 29.97 in 10.0 mi West 4.6 mph - N/A   Clear